Location: *
(42.8365°N, 45.0037°E)
Time: 04:35:46
(UTC+00:00)

Daily predictions for brighter satellites

Satellite Brightness Start Highest point End
(mag) Time Altitude Azimuth Time Altitude Azimuth Time Altitude Azimuth
ATLAS 2AS CENTAUR R/B 3.5 00:43:08 56° E 00:43:08 56° E 00:50:08 10° NE
SL-16 R/B 3.8 00:59:09 28° ESE 01:00:01 29° ESE 01:04:50 10° NE
Cosmos 1980 Rocket 4.1 01:10:36 21° NNE 01:10:36 21° NNE 01:12:21 10° NNE
Cosmos 2112 Rocket 4.4 01:37:00 61° SE 01:37:22 62° ESE 01:42:41 10° NNE
ATLAS 3B R/B 2.9 01:37:07 45° NNW 01:39:15 66° NE 01:46:08 10° SE
NOSS 3-2 (C) 4.0 01:44:59 60° WNW 01:46:17 68° WSW 01:54:41 10° SSE
COSMOS 2455 3.9 01:48:28 32° N 01:48:28 32° N 01:52:10 10° NNE
Lacrosse 5 1.9 01:51:27 77° ENE 01:51:27 77° ENE 01:56:11 10° NE
CENTAUR R/B 3.1 01:53:26 42° NW 01:56:40 74° WSW 02:05:23 10° SSE
NOSS 3-4 (A) 3.3 01:58:14 64° WNW 01:58:32 65° NW 02:04:50 10° NNE
NOSS 3-4 (C) 3.3 01:58:18 64° WNW 01:58:37 65° NW 02:04:56 10° NNE
Cosmos 1953 Rocket 4.2 02:00:20 47° SSE 02:00:20 47° SSE 02:03:27 10° S
USA 215 4.1 01:53:21 10° E 01:59:25 43° NNE 02:02:40 25° NNW
Cosmos 2322 Rocket 2.2 01:56:54 27° SSW 02:00:03 78° ESE 02:05:46 10° NNE
Cosmos 2263 Rocket 2.0 02:00:44 69° W 02:01:02 71° WSW 02:06:40 10° SSE
SKYMED 2 3.9 01:58:28 10° SSE 02:02:45 64° ENE 02:04:30 34° N
SL-8 Rocket 3.9 01:57:46 10° N 02:03:59 85° E 02:10:09 10° S
STARLINK 1063 4.5 02:05:05 41° SSE 02:05:44 44° SE 02:09:42 10° ENE
RESURS DK-1 2.8 02:05:24 45° SSE 02:06:22 59° ESE 02:10:28 10° NNE
Meteor 1-11 4.5 02:03:20 10° N 02:08:57 68° ENE 02:14:36 10° SSE
Cosmos 2056 Rocket 3.8 02:05:53 21° NNW 02:09:37 70° ENE 02:15:00 10° SSE
STARLINK 1064 4.4 02:09:52 42° S 02:10:41 49° SE 02:14:42 10° ENE
Cosmos 1844 Rocket 4.2 02:06:28 10° N 02:11:34 33° NE 02:16:37 10° ESE
Cosmos 2344 4.2 02:11:18 33° NW 02:12:26 34° NNW 02:20:02 10° NNE
Cosmos 2181 Rocket 3.9 02:08:45 10° SSW 02:14:59 76° W 02:21:21 10° N
STARLINK 1041 4.2 02:14:40 42° S 02:15:40 54° SE 02:19:42 10° ENE
Cosmos 1703 3.8 02:16:55 46° S 02:16:55 46° S 02:19:44 10° S
FALCON 9 DEB 3.3 02:20:30 72° E 02:20:30 72° E 02:23:44 10° ESE
STARLINK 1038 4.0 02:19:26 41° SSW 02:20:37 59° SE 02:24:41 10° ENE
Cosmos 158 Rocket 3.7 02:20:39 35° SW 02:22:39 69° WNW 02:27:36 10° NNE
STARLINK 1032 4.4 02:24:59 34° N 02:24:59 34° N 02:27:55 10° NE
STARLINK 1046 3.9 02:24:13 39° SSW 02:25:34 65° SE 02:29:41 10° ENE
STARLINK 1011 4.4 02:28:27 34° N 02:28:27 34° N 02:31:31 10° NE
Orbus 7S? 3.5 02:27:25 54° W 02:28:08 68° SW 02:35:01 10° SE
Cosmos 2341 Rocket 4.2 02:22:48 10° NNW 02:28:40 45° W 02:34:30 10° SSW
BREEZE-M DEB (TANK) 3.4 02:27:48 36° NW 02:28:59 44° N 02:38:43 10° ENE
STARLINK 1039 3.8 02:29:00 36° SW 02:30:33 71° SE 02:34:40 10° ENE
STARLINK 1036 4.3 02:31:56 33° NNW 02:31:56 33° NNW 02:35:08 10° NE
FENGYUN 3A 3.6 02:26:42 10° NNE 02:32:09 85° WNW 02:37:34 10° SSW
ATLAS 2AS CENTAUR R/B 3.5 02:30:36 31° W 02:33:41 42° NW 02:41:10 10° NNE
STARLINK 1045 3.6 02:33:47 34° SW 02:35:31 77° SE 02:39:40 10° NE
CZ-3 R/B 3.8 02:24:31 21° WSW 02:35:52 35° SSW 02:42:54 10° SE
MOS 1-B 4.2 02:32:10 10° NNE 02:37:59 81° WNW 02:43:47 10° SSW
STARLINK 1047 4.4 02:38:55 31° NNW 02:38:56 31° NNW 02:42:23 10° NE
ALOS 2.2 02:34:47 10° N 02:39:25 65° WNW 02:44:02 10° SSW
Cosmos 2058 Rocket 3.1 02:35:13 10° SSW 02:39:28 50° W 02:43:44 10° N
Cosmos 864 Rocket 4.4 02:33:41 10° NNW 02:39:52 68° W 02:46:05 10° S
STARLINK 1050 3.5 02:38:48 32° SW 02:40:38 87° SE 02:44:48 10° NE
Okean O Rocket 2.0 02:36:12 10° NNE 02:40:39 66° ESE 02:45:01 10° S
STARLINK 1037 4.4 02:41:15 30° NNW 02:41:22 30° NNW 02:44:48 10° NE
Cosmos 1340 Rocket 4.4 02:38:14 10° SSE 02:41:50 36° E 02:45:27 10° NNE
SL-16 R/B 2.5 02:41:08 25° WSW 02:43:54 42° WNW 02:49:17 10° NNE
Cosmos 2360 Rocket 2.2 02:38:32 10° SSW 02:44:13 89° ESE 02:49:56 10° NNE
Lacrosse 5 rocket 3.4 02:41:33 14° NNW 02:44:15 22° NNE 02:47:44 10° ENE
STARLINK 1059 4.4 02:44:46 29° NNW 02:45:04 29° NNW 02:48:28 10° NE
STARLINK 1055 3.5 02:43:32 29° SW 02:45:33 86° NW 02:49:43 10° NE
STARLINK-60 3.9 02:45:42 33° SW 02:45:42 33° SW 02:48:43 10° SSE
ATLAS 2A CENTAUR R/B 4.3 02:44:07 10° SSE 02:45:43 11° SE 02:47:49 10° SE
CZ-2C R/B 4.4 02:43:17 10° NNW 02:44:07 13° NNW 02:44:07 13° NNW
Cosmos 2219 Rocket 4.1 02:42:09 10° SSE 02:47:06 32° ESE 02:52:05 10° NE
STARLINK-29 3.1 02:47:20 44° WNW 02:48:17 69° SW 02:51:48 10° SE
STARLINK 1057 4.5 02:48:19 27° NW 02:48:47 28° NNW 02:52:09 10° NE
Meteor 2-12 Rocket 4.4 02:43:54 10° N 02:50:03 89° W 02:56:11 10° S
Cosmos 2218 Rocket 4.1 02:44:17 10° NNW 02:50:25 51° W 02:56:27 10° SSW
STARLINK 1022 3.5 02:48:17 26° WSW 02:50:31 80° NW 02:54:40 10° NE
COSMO-SKYMED 1 3.0 02:46:51 10° SSW 02:50:53 38° W 02:53:07 22° NW
Cosmos 2322 4.4 02:45:29 10° S 02:51:01 58° ESE 02:56:34 10° NNE
STARLINK-52 3.1 02:49:55 40° WNW 02:51:01 74° SW 02:54:31 10° SE
Cosmos 1452 Rocket 4.1 02:46:26 10° NNW 02:51:39 59° ENE 02:56:48 10° SSE
Cosmos 1980 Rocket 4.0 02:52:23 14° NW 02:52:23 14° NW 02:54:38 10° NNW
STARLINK 1042 3.5 02:53:02 24° WSW 02:55:28 74° NW 02:59:37 10° NE
SL-08 R/B 4.5 02:49:34 10° NNW 02:56:01 71° W 03:02:21 10° S
Cosmos 1300 2.6 02:52:26 10° S 02:56:15 86° WNW 03:00:05 10° N
CZ-4B R/B 3.2 02:53:23 10° NNE 02:58:55 89° WNW 03:04:18 10° SSW
STARLINK 1056 3.6 02:57:52 21° WSW 03:00:30 68° NNW 03:04:38 10° NE
BREEZE-M DEB (TANK) 4.4 02:58:05 24° WNW 03:00:33 89° SW 03:11:52 10° ESE
Cosmos 1844 4.1 02:56:21 10° NNW 03:01:54 64° ENE 03:07:24 10° SE
Cosmos 2084 Rocket 4.5 03:00:43 10° SSW 03:04:54 49° ESE 03:09:11 10° NE
H-2A R/B 3.4 03:01:17 10° NNE 03:05:08 58° E 03:08:56 10° S
STARLINK 1054 3.6 03:02:36 19° WSW 03:05:26 63° NNW 03:09:34 10° NE
Cosmos 2058 3.5 03:02:31 10° N 03:06:42 60° E 03:10:51 10° SSE
STARLINK 1062 3.7 03:07:22 17° WSW 03:10:25 59° NNW 03:14:32 10° NE
Cosmos 2237 4.2 03:04:59 10° SW 03:10:37 60° WNW 03:16:18 10° NNE
USA 116 4.4 03:07:49 10° SSW 03:11:58 38° W 03:15:42 10° NNW
STARLINK 1053 3.8 03:12:13 15° WSW 03:15:28 55° NNW 03:19:34 10° NE
Cosmos 1420 Rocket 4.0 03:11:01 10° NNW 03:16:17 65° WSW 03:21:31 10° S
NOAA 6 4.1 03:12:25 10° N 03:17:29 54° WNW 03:22:31 10° SSW
In-Cosmos 22 Rocket 4.2 03:14:42 10° N 03:20:04 82° E 03:25:22 10° SSE
COSMOS 2428 3.5 03:14:54 10° S 03:20:28 58° ESE 03:26:06 10° NNE
STARLINK 1061 3.8 03:16:59 13° WSW 03:20:28 51° NNW 03:24:32 10° NE
Cosmos 1437 2.9 03:18:41 10° NNW 03:21:36 43° W 03:24:29 10° S
Helios 1A Rocket 3.0 03:18:53 10° N 03:22:57 56° WNW 03:27:01 10° SSW
ADEOS Rocket 2.8 03:19:41 10° S 03:25:09 72° WSW 03:30:59 10° NNW
STARLINK 1067 3.9 03:21:45 12° WSW 03:25:27 48° NNW 03:29:29 10° NE
Cosmos-2242 3.9 03:22:47 10° S 03:27:04 56° E 03:31:22 10° NNE
STARLINK-43 4.0 03:24:43 11° NW 03:28:06 48° NNE 03:31:43 10° ESE
ATLAS 3B R/B 3.7 03:24:25 12° WNW 03:29:25 26° WSW 03:34:58 10° SSW
STARLINK 1058 4.0 03:26:29 10° WSW 03:30:24 45° NNW 03:34:24 10° NE
CZ-4 R/B 4.1 03:29:38 10° NE 03:33:07 25° E 03:36:33 10° SSE
Cosmos 1892 2.8 03:30:11 10° N 03:34:01 80° E 03:37:47 10° S
SMAP 3.0 03:29:39 10° N 03:34:20 82° WNW 03:38:59 10° SSW
Lacrosse 5 3.0 03:30:40 11° W 03:34:35 26° NNW 03:38:51 10° NNE
STARLINK 1043 4.1 03:31:26 10° W 03:35:24 42° NNW 03:39:22 10° NE
Cosmos 2278 Rocket 3.6 03:33:35 10° N 03:38:51 38° ENE 03:44:05 10° SE
Alouette 2 Rocket 3.8 03:35:38 10° SW 03:39:31 36° WNW 03:42:51 10° N
STARLINK 1065 4.2 03:36:28 10° W 03:40:23 40° NNW 03:44:19 10° NE
USA 215 3.3 03:35:39 10° SE 03:42:10 72° SW 03:48:43 10° NW
Cosmos 1174 3.7 03:38:31 10° SW 03:42:21 48° WNW 03:45:36 10° NNE
Cosmos 1812 Rocket 4.1 03:40:24 10° SW 03:44:26 35° WNW 03:48:31 10° N
Cosmos 2322 Rocket 3.5 03:40:48 10° W 03:44:46 19° NW 03:48:46 10° N
RESURS DK-1 4.0 03:42:19 10° W 03:44:48 15° NW 03:47:18 10° NNW
IRS-1C Rocket 4.1 03:39:38 10° NNE 03:44:56 82° WNW 03:50:13 10° SSW
STARLINK 1063 4.3 03:41:29 10° W 03:45:22 38° NNW 03:49:16 10° NE
Cosmos 1825 3.6 03:43:55 10° N 03:47:30 40° ENE 03:51:03 10° SSE
NOAA 12 4.3 03:42:21 10° NNE 03:47:42 82° ESE 03:53:01 10° SSW
Cosmos 2237 Rocket 4.0 03:43:59 10° S 03:49:09 38° ESE 03:54:20 10° NE
Cosmos 1048 Rocket 4.0 03:44:25 10° SSW 03:49:37 62° WNW 03:54:49 10° NNE
Cosmos 1408 3.1 03:46:39 10° N 03:50:21 65° E 03:54:00 10° SSE
STARLINK 1064 4.4 03:46:33 10° W 03:50:23 36° NNW 03:54:14 10° NE
